Погода в Варене

Поиск расширенной информации на нашем сайте:

Полезная информация:

Новости сайта



02.01.2020
Опубликован Долгосрочный прогноз погоды по городам России и ближнего зарубежья на январь 2020 года.
Карты: Прогноз на январь и февраль 2020 года, Сравнение прогнозируемой аномалии приземной температуры воздуха на январь 2020 года по разным моделям.




Погода в Варене - сегодня

Время (UTC), дата Ветер
(°,м/с) 
Видим.   Явления Облачность Т
(°С)
Тd
(°С)
f(%) Тe
(°С)
Pmin
(гПа)
dP
(гПа)
Po
(мм)
O2
(г/м3)
Тmin Tmax R s Состояние
почвы
03 24.02.21 210 (ЮЗ) 2-2{05}  3200 м  дымка  10/10 200 м 
+3.1 +2.4 95 +3  1029.9  -0.5  762  303        19   
06 24.02.21 тихо () -1{02}  2500 м  дымка  10/10 150 м 
[St]
+1.7 +1.3 97 +2  1030.1  0.2  762  305  +1.9      24  равномерный
мокрый или
старый снег
100% 
09 24.02.21 210 (ЮЗ) 2-3{04}  5000 м  дымка  8/3 600 м средняя, верхняя 
[Sc|Ac trans|Cs]
+5.5 +3 84 +5  1029.9  762  301        23  равномерный
мокрый или
старый снег
100% 
12 24.02.21 280 (З) 2-4{05}  8000 м  мгла  8/3 1000 м средняя, верхняя 
[Sc|Ac trans|Cs]
+10.7 +5.2 69 +11  1029.6  -0.1  762  295        21  равномерный
мокрый или
старый снег
100% 
15 24.02.21 230 (ЮЗ) 2-4{07}  10 км    9/8 1380 м верхняя 
[Sc|Cs]
+9.9 +4.9 71 +10  1028.5  -1.1  761  295        19  равномерный
мокрый или
старый снег
100% 
21 24.02.21 200 (Ю) 1-1{03}  2800 м  дымка  ясно 
+0.1 +0 99 +1  1028  -0.3  761  306        13   
00 25.02.21 220 (ЮЗ) 2-2{02}  0900 м  туман  10/0 
-1.4 -1.5 99 -2  1027.5  -0.6  760  308        13   
03 25.02.21 230 (ЮЗ) 2-2{03}  0700 м  туман  9/0 2000 м 
+3 +3 100 +2  1026.6  -0.7  760  302        13   
12 25.02.21 220 (ЮЗ) 2-5{06}  17000 м  {дождь, туман}  8/0 средняя 
[Ac trans]
+13.4 +6.1 61 +14  1025.6  -0.5  759  291        17  равномерный
мокрый или
старый снег
100% 
15 25.02.21 240 (ЮЗ) 2-4{06}  19000 м    ясно <0100 м 
+13.8 +6.1 60 +14  1023.8  -1.7  758  290        16  равномерный
мокрый или
старый снег
100% 
18 25.02.21 200 (Ю) 2-3{05}  9000 м  дымка  ясно <0100 м 
+8.1 +5.6 84 +8  1023.1  -1  757  295    +15  0.0  16  равномерный
мокрый или
старый снег
100% 
21 25.02.21 220 (ЮЗ) 1-2{04}  2000 м  дымка  ясно <0100 м 
+3 +3.1 100 +4  1021.9  -1.4  756  301         
00 26.02.21 220 (ЮЗ) 2-3{04}  0700 м  слаб. дождь  ясно 
+3.9 +3.9 100 +3  1020.7  -1.1  755  299      0.0   
03 26.02.21 220 (ЮЗ) 2-3{04}  1300 м  дымка  8/0 
+4.1 +4.1 100 +4  1019.2  -1.6  754  299         
06 26.02.21 240 (ЮЗ) 2-3{05}  6000 м  дымка{ливн. осадки, туман}  10/10 420 м 
[Sc]
+5.7 +4.8 94 +5  1019  754  297  +2.2    0.0  15  равномерный
мокрый или
старый снег
100% 
12 26.02.21 250 (З) 3-6{10}  20000 м    8/3 900 м верхняя 
[Cu hum|Ci]
+8.8 +1.8 61 +8  1017.9  -0.9  753  294        13  равномерный
мокрый или
старый снег
100% 
15 26.02.21 290 (З) 3-5{08}  20000 м    8/6 840 м верхняя 
[Sc|Ci fib]
+6.6 +1.9 72 +6  1017.7  -0.3  753  296        12  равномерный
мокрый или
старый снег
100% 
18 26.02.21 290 (З) 3-6{08}  15000 м    9/9 540 м 
[Sc]
+3.9 +1.4 84 +3  1018.2  0.4  753  299    +8.9    12  равномерный
мокрый или
старый снег
100% 
21 26.02.21 260 (З) 4-8{09}  5000 м  дымка  10/10 100 м 
+2.9 +2.4 97 +1  1018.1  0.2  753  300         
00 27.02.21 270 (З) 4-6{07}  15000 м    10/10 300 м 
+3.5 +1.9 89 +2  1018  0.1  753  299         
03 27.02.21 270 (З) 3-6{08}  11000 м  слаб. ливневой дождь  10/10 200 м 
+2.9 +2.2 95 +2  1018.1  -0.1  753  300         
06 27.02.21 310 (СЗ) 3-8{09}  20000 м  {ливн. осадки}  10/10 700 м 
[Sc]
+2.5 +0.8 89 +1  1019.8  1.7  755  301  +2.3    0.9  равномерный
мокрый или
старый снег
100% 
09 27.02.21 310 (СЗ) 4-8{10}  20000 м    4/3 600 м верхняя 
[Cu hum|Cs]
+4.9 -0.6 68 +3  1021.5  1.7  756  299        равномерный
мокрый или
старый снег
100% 
12 27.02.21 320 (СЗ) 6-11{14}  20000 м    6/6 1170 м 
[Cu med, cong]
+6.6 -1.4 57 +4  1023.2  1.8  757  298        равномерный
мокрый или
старый снег
100% 
15 27.02.21 320 (СЗ) 5-9{12}  19000 м    4/4 1000 м 
[Cu med, cong]
+6.1 -1.9 56 +4  1024.5  1.3  758  299        равномерный
мокрый или
старый снег
100% 
Время (UTC), дата Ветер
(°,м/с) 
Видим.   Явления Облачность Т
(°С)
Тd
(°С)
f(%) Тe
(°С)
Pmin
(гПа)
dP
(гПа)
Po
(мм)
O2
(г/м3)
Тmin Tmax R s Состояние
почвы

Для получения пояснительной информации подведите курсор к названию столбца.

ПОГОДА в Варене - архив

Всё, что Вы хотите узнать о погоде в Варене - удобно и подробно!

Выберите нужную дату (начиная с 1 января 2019* года) и нажмите кнопку "Найти".
Будут отображены архивные сводки погоды по пункту Варена, начиная с указанной даты.


Отображать данные в формате CSV (для использования в таблицах Excel)


Внимание! Наш архив погоды предназначен исключительно для личного некоммерческого использования в познавательных целях. Если Вам необходимы официальные справки о состоянии погоды (для производственных, юридических, коммерческих и т.п. целей), обращайтесь в органы Росгидромета.

*Примечание: данная дата относится к архиву по метеостанциям СССР (Россия, СНГ, Балтия).
Архив по метеостанциям Зарубежной Европы и Азии (кроме Китая) хранится 10 дней, по другим регионам земного шара (Китай, Африка, Америка, Австралия, Океания) - 1 день.

Варена - район местоположения метеостанции


Название, широта, долгота, высота метеостанции:
Варена 54.2°ш. 24.6°д. 111 м над ур. моря [Литва]

Дополнительная информация

В oтличие oт бoльшинства пoгoдных сайтoв мы публикуем пoдрoбную метеoинфoрмацию в детальнoм прoфессиoнальнoм фoрмате.

Характеристики температуры и влажнoсти вoздуха измеряются на высoте 2 м в тени вдали oт зданий и деревьев.
Скoрoсть ветра измеряется на высoте 10 м (на урoвне рoста челoвека скoрoсть ветра ниже в 1.5-2 раза). Если метеoстанция нахoдится в гoрoде или в лесу, тo скoрoсть ветра занижена на 2-4 м/с пo сравнению с oткрытым местoм. Скoрoсть ветра над акватoриями крупных рек и oзёр, а также на вершинах хoлмoв на 2-5 м/с выше, чем в oбычных услoвиях.
Атмoсфернoе давление в разных тoчках местнoсти мoжет значительнo oтличаться oт давления на метеoстанции, в зависимoсти oт услoвий рельефа (при пoдъёме на 10 м давление пoнижается примернo на 1 мм рт.ст.).